Weather in Yekaterininskoye

Russia / Perm Krai     58°28′26″N   54°04′29″E
temp.,
°C
wind,
m/s
gust,
m/s
humid.,
%
clouds,
%
prec.,
mm/h
press.,
hPa
HPBL,
m
1 march, mon
mon123:00−17ne2598100 0.1 1015139
02:00−20ne2210094 0.0 101629
05:00−22nne229976 0.1 101825
08:00−23nne229935 0.0 101920
11:00−18ene129122 0.0 1019189
14:00−12wsw128382 0.0 1018390
17:00−11sw238589 0.0 1016492
20:00−16sw379698 0.0 1014162
2 march, tue
tue223:00−15ssw4119394 0.0 1012355
02:00−14ssw41192100 0.0 1008391
05:00−13ssw41194100 0.5 1005489
08:00−12ssw41094100 0.9 1001506
11:00−11s51092100 1.4 999497
14:00−9s4893100 1.0 996528
17:00−7s3794100 2.1 995466
20:00−8se2596100 0.6 994187
3 march, wed
wed323:00−9ese2397100 1.0 99481
02:00−11nne1298100 0.1 99421
05:00−13n1297100 0.1 99420
08:00−12nnw119797 0.0 99420
11:00−7w239498 0.0 995186
14:00−3wnw3689100 0.1 996704
17:00−3wnw4790100 0.3 996752
20:00−7wnw4109298 0.1 997525
4 march, thu
thu423:00−9wnw3109289 0.1 998377
02:00−12w379688 0.0 998161
05:00−13wsw389691 0.0 999162
08:00−12wsw379589 0.1 998243
11:00−10wsw379287 0.1 998348
14:00−7sw4686100 0.0 997770
17:00−6sw4786100 0.1 996872
20:00−8s3994100 0.0 993365
5 march, fri
fri523:00−6sse41095100 0.6 990642
02:00−5s3995100 1.2 987499
05:00−3sw3796100 2.2 985410
08:00−5wnw4894100 0.3 985451
11:00−7w5108992 0.4 988728
14:00−8wnw61286100 0.1 994773
17:00−10wnw61184100 0.1 1000879
20:00−13wnw41190100 0.1 1004759